Location: Santa Cristina
(46.5667°N, 11.7167°E)
Time: 17:33:38
(UTC+00:00)

PAYLOAD A - Pass Details

Date: 21 April 2021
Orbit: 691 x 832 km, 98.4° (Epoch: 12 May)

Event Time Altitude Azimuth Distance (km) Brightness Sun altitude
Rises 03:17:14 0° 12° (NNE) 3,286 7.9 -10.0°
Reaches altitude 10° 03:19:36 10° 10° (N) 2,332 7.1 -9.6°
Maximum altitude 03:24:42 72° 288° (WNW) 794 4.0 -8.8°
Drops below altitude 10° 03:29:35 10° 204° (SSW) 2,225 5.9 -8.1°
Enters shadow 03:31:31 - 202° (SSW) 3,006 6.6 -7.8°
